This demonstration page uses our WeatherBlox Daily Observations layout. Learn more.

Left ArrowRight Arrow

38.80484, -77.04692

Hourly Observations for November 5, 2020

Temp ( °F °C ) Dew Point ( °F °C ) Humidity (%) Winds ( mph kmh ) Pressure ( in mb ) Visibility ( mi km ) Precip ( " mm )
12:52 am 00:52 Clear 52 11.1 48 8.9 86 86 Calm 30.45 1031 10 16.0934 0 0
1:52 am 01:52 Clear 50 10 48 8.9 93 93 Calm 30.45 1031 10 16.0934 0 0
2:52 am 02:52 Clear 50 10 48 8.9 93 93 SSW 5 7 30.44 1031 10 16.0934 0 0
3:52 am 03:52 Clear 49 9.4 48 8.9 97 97 Calm 30.43 1031 8 12.87472 0 0
4:52 am 04:52 Clear 50 10 48 8.9 93 93 Calm 30.44 1031 10 16.0934 0 0
5:52 am 05:52 Clear with Mist and Fog 48 8.9 47 8.3 96 96 Calm 30.44 1031 5 8.0467 0 0
6:52 am 06:52 Mostly Sunny 48 8.9 45 7.2 89 89 Calm 30.44 1031 10 16.0934 0 0
7:52 am 07:52 Mostly Sunny 50 10 48 8.9 93 93 S 5 7 30.45 1031 10 16.0934 0 0
8:52 am 08:52 Mostly Sunny 53 11.7 48 8.9 83 83 S 8 13 30.45 1031 10 16.0934 0 0
9:52 am 09:52 Partly Cloudy 56 13.3 46 7.8 70 70 S 10 17 30.44 1031 10 16.0934 0 0
10:52 am 10:52 Partly Cloudy 61 16.1 45 7.2 56 56 SSE 13 20 30.42 1030 10 16.0934 0 0
11:52 am 11:52 Mostly Cloudy 63 17.2 45 7.2 52 52 SSE 12 19 30.4 1029 10 16.0934 0 0
12:52 pm 12:52 Mostly Cloudy 66 18.9 44 6.7 45 45 SSE 12 19 30.37 1029 10 16.0934 0 0
1:52 pm 13:52 Mostly Cloudy 67 19.4 44 6.7 44 44 S 9 15 30.35 1028 9 14.48406 0 0
2:52 pm 14:52 Mostly Cloudy 67 19.4 43 6.1 42 42 S 10 17 30.34 1027 10 16.0934 0 0
3:52 pm 15:52 Mostly Cloudy 65 18.3 44 6.7 47 47 S 7 11 30.33 1027 10 16.0934 0 0
4:52 pm 16:52 Mostly Cloudy 64 17.8 43 6.1 46 46 S 5 7 30.34 1027 10 16.0934 0 0
5:52 pm 17:52 Partly Cloudy 61 16.1 46 7.8 58 58 S 6 9 30.34 1028 10 16.0934 0 0
6:52 pm 18:52 Partly Cloudy 60 15.6 48 8.9 65 65 S 6 9 30.35 1028 10 16.0934 0 0
7:52 pm 19:52 Partly Cloudy 57 13.9 47 8.3 69 69 SW 3 6 30.35 1028 10 16.0934 0 0
8:52 pm 20:52 Mostly Cloudy 54 12.2 48 8.9 80 80 Calm 30.35 1028 10 16.0934 0 0
9:52 pm 21:52 Mostly Cloudy 54 12.2 48 8.9 80 80 Calm 30.35 1028 7 11.26538 0 0
10:52 pm 22:52 Cloudy 54 12.2 50 10 87 87 Calm 30.34 1027 10 16.0934 0 0
11:52 pm 23:52 Cloudy 52 11.1 49 9.4 89 89 Calm 30.33 1027 10 16.0934 0 0

Powered by AerisWeather